This is the latest recevied weather packets stored in our database for station/object E22ZMG-4. If no packets are shown the sender has not sent any weather packets the latest 10 day(s).
| Time | Temp. | Humidity | Pressure | Rain* | Wind** | Luminosity | Snow |
|---|---|---|---|---|---|---|---|
| 1777782531 | 29.44° C | 38% | 976 hPa | - | - | 0 W/m² | - |
| 1777781906 | 30° C | 36% | 976 hPa | - | - | 0 W/m² | - |
| 1777781282 | 31.67° C | 38% | 976 hPa | - | - | 0 W/m² | - |
| 1777780658 | 33.33° C | 37% | 977 hPa | - | - | 0 W/m² | - |
| 1777780034 | 32.78° C | 37% | 977 hPa | - | - | 0 W/m² | - |
| 1777779409 | 32.78° C | 37% | 977 hPa | - | - | 0 W/m² | - |
| 1777778785 | 32.78° C | 36% | 977 hPa | - | - | 0 W/m² | - |
| 1777778160 | 32.78° C | 36% | 977 hPa | - | - | 0 W/m² | - |
| 1777777536 | 32.22° C | 35% | 977 hPa | - | - | 0 W/m² | - |
| 1777776912 | 32.22° C | 35% | 977 hPa | - | - | 0 W/m² | - |
| 1777776287 | 31.67° C | 34% | 977 hPa | - | - | 0 W/m² | - |
| 1777775663 | 31.11° C | 35% | 977 hPa | - | - | 0 W/m² | - |
| 1777775038 | 30° C | 35% | 977 hPa | - | - | 0 W/m² | - |
| 1777774414 | 28.33° C | 36% | 977 hPa | - | - | 0 W/m² | - |
| 1777773789 | 27.78° C | 37% | 977 hPa | - | - | 0 W/m² | - |
| 1777773164 | 28.33° C | 39% | 977 hPa | - | - | 0 W/m² | - |
| 1777772540 | 28.89° C | 41% | 977 hPa | - | - | 0 W/m² | - |
| 1777771915 | 28.89° C | 42% | 977 hPa | - | - | 0 W/m² | - |
| 1777771290 | 28.89° C | 45% | 977 hPa | - | - | 0 W/m² | - |
| 1777770666 | 28.33° C | 40% | 977 hPa | - | - | 0 W/m² | - |
| 1777770041 | 28.33° C | 38% | 976 hPa | - | - | 0 W/m² | - |
| 1777769417 | 29.44° C | 40% | 976 hPa | - | - | 0 W/m² | - |
| 1777768793 | 30.56° C | 43% | 976 hPa | - | - | 0 W/m² | - |
| 1777768169 | 31.67° C | 46% | 976 hPa | - | - | 0 W/m² | - |
| 1777767544 | 31.67° C | 46% | 976 hPa | - | - | 0 W/m² | - |
* Rain since midnight (hover to see other rain measurements)
** Current wind speed in m/s (hover to see current wind gust speed)